Location: Mascot Post Office (historical)
(40.2645°N, 99.5462°W)
Time: 01:29:19
(UTC+00:00)

Lacrosse 5 - Pass Details

Date: 14 July 2020
Orbit: 717 x 720 km, 57.0° (Epoch: 11 August)

Event Time Altitude Azimuth Distance (km) Brightness Sun altitude
Exits shadow 08:26:22 - 286° (WNW) 2,536 4.6 -23.7°
Reaches altitude 10° 08:27:37 10° 295° (WNW) 2,201 4.4 -23.6°
Maximum altitude 08:31:02 18° 338° (NNW) 1,731 4.3 -23.3°
Drops below altitude 10° 08:34:27 10° 21° (NNE) 2,205 5.5 -23.0°
Sets 08:37:36 0° 40° (NE) 3,127 6.6 -22.7°
